Location: Greifenhagen
(53.2539°N, 14.4901°E)
Time: 02:08:46
(UTC+00:00)

Daily predictions for brighter satellites

Satellite Brightness Start Highest point End
(mag) Time Altitude Azimuth Time Altitude Azimuth Time Altitude Azimuth
CENTAUR R/B 4.0 00:03:31 10° NW 00:10:25 42° NNE 00:18:21 10° E
Resurs 1-4 Rocket 4.2 00:14:21 10° NNE 00:16:24 22° NE 00:16:24 22° NE
Cosmos 2360 Rocket 4.0 00:25:51 10° NNW 00:30:27 28° NNE 00:30:27 28° NNE
ADEOS II 4.1 00:34:04 10° NNE 00:36:32 23° NE 00:36:32 23° NE
ADEOS Rocket 4.3 00:43:12 31° NE 00:43:12 31° NE 00:47:21 10° N
Cosmos 1833 Rocket 4.2 00:58:07 33° NNE 00:58:07 33° NNE 01:01:11 10° NNE
Cosmos 2082 Rocket 3.6 01:00:46 36° NE 01:00:46 36° NE 01:04:04 10° NE
Cosmos 2333 Rocket 4.2 00:54:09 10° NNW 00:58:52 25° NNE 01:03:35 10° E
Cosmos 2322 Rocket 4.2 00:59:29 10° NNW 01:01:08 20° NNW 01:01:08 20° NNW
Cosmos 2219 Rocket 4.2 01:09:33 10° NNW 01:14:15 26° NE 01:18:57 10° E
COSMOS 2406 4.4 01:16:59 37° N 01:16:59 37° N 01:20:41 10° NNE
USA 238 DEB 4.2 01:15:16 10° NW 01:22:18 60° NNE 01:29:40 10° ESE
USA 238 4.2 01:15:23 10° NW 01:22:24 60° NNE 01:29:46 10° ESE
ATLAS 3B R/B 4.0 01:22:13 24° NW 01:25:23 35° N 01:31:46 10° ENE
CZ-2D R/B 3.5 01:22:39 10° N 01:25:31 32° N 01:25:31 32° N
NOSS 3-1 (C) 4.1 01:40:38 49° NNW 01:40:38 49° NNW 01:47:07 10° NE
SL-16 R/B 4.4 01:47:18 17° NW 01:47:18 17° NW 01:48:55 10° NNW
ARIANE 5 R/B 3.7 01:38:41 10° NNE 01:43:01 38° E 01:43:01 38° E
USA 267 3.6 01:42:24 10° ENE 01:48:35 51° SE 01:48:35 51° SE
NOSS 3-2 (A) 3.9 01:43:55 10° NW 01:51:09 83° NE 01:59:31 10° SE
Meteor 2-8 Rocket 4.5 01:56:03 74° N 01:56:03 74° N 02:01:38 10° N
Resurs 1-4 Rocket 3.5 01:54:22 10° N 01:57:29 29° NNW 01:57:29 29° NNW
IRS-P3 4.5 01:54:21 10° NNE 01:59:13 62° ENE 01:59:13 62° ENE
CENTAUR R/B 3.2 01:54:31 10° NW 02:02:18 75° NE 02:11:05 10° SE
Meteor 1-27 4.3 02:06:21 73° NE 02:06:21 73° NE 02:11:29 10° NNE
Iridium 4 Rocket 4.2 02:09:40 42° NE 02:09:40 42° NE 02:12:43 10° N
Cosmos 2360 Rocket 3.6 02:09:41 10° NNW 02:22:23 - SSE 02:12:08 27° NNW
ADEOS II 2.8 02:13:36 10° N 02:17:30 42° NNW 02:17:30 42° NNW
IDEFIX/ARIANE 42P 2.6 02:14:54 10° NNE 02:19:41 75° N 02:19:41 75° N
Cosmos 2237 Rocket 4.2 02:17:08 10° NNW 02:21:57 27° NE 02:26:45 10° E
Cosmos 2333 4.4 02:17:02 10° NNW 02:22:49 71° NE 02:28:36 10° SE
USA 229 DEB 4.2 02:22:53 40° NW 02:24:24 46° NNW 02:31:15 10° NE
USA 229 4.2 02:22:58 41° WNW 02:24:29 46° NNW 02:31:21 10° NE
ISS -0.8 02:27:42 13° ESE 02:27:42 13° ESE 02:28:10 10° ESE
IRS-1D 4.3 02:20:11 10° N 02:23:43 39° NNW 02:23:43 39° NNW
USA 234 3.7 02:19:23 10° SE 02:24:09 44° S 02:24:09 44° S
ERS-1 4.4 02:20:42 10° NNE 02:25:52 81° ESE 02:25:52 81° ESE
ADEOS Rocket 3.7 02:30:07 33° NW 02:30:07 33° NW 02:33:19 10° NNW
CZ-4C R/B 4.5 02:25:43 10° SE 02:28:33 15° ESE 02:31:37 10° ENE
IRAS Rocket 4.2 02:29:13 70° WNW 02:29:13 70° WNW 02:34:12 10° NNW
CZ-2C R/B 4.1 02:25:18 10° NNE 02:28:51 36° E 02:28:51 36° E
Meteor 2-15 Rocket 4.3 02:29:08 67° SSW 02:30:02 86° WNW 02:36:14 10° N
NOSS 3-2 (C) 3.9 02:25:54 10° NW 02:33:10 89° NE 02:41:34 10° SE
Cosmos 1553 Rocket 3.9 02:32:42 58° SSW 02:34:04 87° W 02:40:21 10° N
SL-08 ROCKET BODY 4.3 02:29:41 10° NNW 02:35:46 64° W 02:35:55 64° WSW
Cosmos 1417 Rocket 4.4 02:35:32 48° S 02:37:29 88° E 02:43:53 10° N
Lacrosse 5 2.9 02:40:09 34° SSE 02:40:09 34° SSE 02:43:06 10° SE
Cosmos 1833 Rocket 4.2 02:39:48 23° NW 02:40:26 23° NNW 02:44:53 10° NNE
NOSS 3-1 (A) 4.2 02:39:30 35° NW 02:41:12 43° NNW 02:47:57 10° NE
ARGOS Delta rocket 4.0 02:36:34 10° N 02:42:00 67° WNW 02:42:06 67° W
Cosmos 2082 Rocket 3.2 02:42:36 31° NW 02:42:58 31° NW 02:48:03 10° NNE
MSX 3.7 02:37:16 10° NNE 02:43:02 82° WNW 02:44:10 59° SSW
Cosmos 2333 Rocket 2.3 02:38:15 10° NNW 02:44:03 80° NE 02:49:51 10° SE
SL-27 R/B 3.6 02:53:54 39° N 02:53:54 39° N 02:56:23 10° NNE
Cosmos 2221 2.4 02:53:27 79° NW 02:53:27 79° NW 02:57:39 10° N
Cosmos 1805 Rocket 3.9 02:49:51 10° N 02:54:20 66° ENE 02:58:46 10° SSE
Cosmos 1743 Rocket 3.7 02:51:23 10° NNW 02:55:12 59° NW 02:55:12 59° NW
NOSS 2-2 (D) 3.6 02:56:55 54° N 02:56:55 54° N 03:00:38 10° NE
Cosmos 2219 Rocket 2.1 02:53:19 10° NNW 02:59:01 86° ENE 03:04:43 10° SSE
IRS-1C 4.3 02:54:24 10° N 02:59:34 50° WNW 02:59:58 49° W
CZ-2C R/B 2.6 02:55:03 10° NNE 02:59:49 66° ESE 03:02:02 30° S
Cosmos 1269 Rocket 4.1 03:00:32 53° W 03:01:09 57° WNW 03:06:24 10° NNE
CZ-2D R/B 3.6 02:57:15 10° N 03:00:54 57° NW 03:00:54 57° NW
Landsat 5 3.6 02:58:14 10° SSE 03:02:03 67° ENE 03:06:01 10° N
Aureole 3 Rocket 4.4 03:04:55 30° NW 03:04:55 30° NW 03:09:34 10° N
CZ-2D R/B 4.0 03:04:10 10° NNW 03:06:50 15° NW 03:06:50 15° NW
CZ-4B R/B 4.3 03:07:44 10° ESE 03:09:50 17° ENE 03:11:56 10° NNE
Sich 1 3.2 03:06:43 10° N 03:11:10 74° ENE 03:15:33 10° SSE
GEOS 3 Rocket 4.0 03:06:48 10° NE 03:12:02 53° NW 03:13:38 39° W
USA 238 DEB 3.9 03:06:23 10° NW 03:13:21 54° SW 03:20:36 10° SSE
USA 238 3.9 03:06:30 10° NW 03:13:28 54° SW 03:20:43 10° SSE
Cosmos 1606 2.9 03:12:56 39° S 03:14:16 73° E 03:18:10 10° NNE
COSMOS 2428 2.6 03:09:37 10° NNW 03:15:22 86° WSW 03:21:06 10° SSE
CZ-4B R/B 4.1 03:11:30 10° N 03:16:11 36° WNW 03:16:35 36° WNW
ATLAS 3B R/B 3.3 03:10:37 10° NW 03:17:23 58° NNE 03:24:27 10° ESE
Cosmos 1666 Rocket 4.2 03:13:47 10° N 03:18:06 56° ENE 03:22:25 10° SSE
ARIANE 5 R/B 3.0 03:17:52 10° N 03:22:33 39° WNW 03:23:22 37° W
ATLAS 5 CENTAUR R/B 3.6 03:19:26 10° S 03:22:36 23° ESE 03:26:04 10° ENE
MOS 1 Rocket 4.4 03:19:33 10° SE 03:23:48 44° ENE 03:28:18 10° N
Cosmos 1745 Rocket 4.4 03:17:58 10° NNW 03:23:48 41° W 03:26:32 28° SW
SeaSat 1 2.9 03:19:09 10° SE 03:24:02 64° NE 03:28:56 10° NNW
S3M 4.0 03:21:13 30° SW 03:24:10 57° WNW 03:30:20 10° N
USA 267 3.2 03:25:32 10° ENE 03:32:06 81° NNW 03:35:57 27° WSW
CZ-4C R/B 2.8 03:30:56 36° S 03:32:09 64° WSW 03:35:38 10° NNW
FENGYUN 3A 3.9 03:27:02 10° NNE 03:32:31 74° ESE 03:37:57 10° S
Cosmos 1602 4.4 03:29:57 10° N 03:33:52 57° ENE 03:37:43 10° SSE
Meteor 1-25 Rocket 4.2 03:28:31 10° NNW 03:34:08 87° ENE 03:39:42 10° SSE
Cosmos 1709 Rocket 4.1 03:29:29 10° NNW 03:35:42 55° W 03:41:53 10° SSW
Cosmos 2322 3.9 03:30:24 10° NW 03:35:49 46° WSW 03:41:11 10° S
NOSS 0 Rocket 3.9 03:30:55 10° NNW 03:37:09 88° ENE 03:43:21 10° SSE
Cosmos 2184 Rocket 4.3 03:31:43 10° N 03:38:04 71° ENE 03:44:25 10° SSE
Meteor 1-4 Rocket 3.5 03:42:48 29° WNW 03:42:48 29° WNW 03:45:44 10° N
H-2A R/B 1.8 03:39:00 10° SSE 03:43:12 76° WSW 03:47:21 10° NNW
Cosmos 1151 Rocket 4.0 03:40:07 10° S 03:44:16 49° E 03:48:25 10° NNE
NOSS 2-2 (C) 4.3 03:44:33 26° WNW 03:45:49 33° NNW 03:49:50 10° NE
Cosmos 1633 Rocket 3.0 03:44:52 10° N 03:49:19 90° ENE 03:53:42 10° S
COSMOS 2487 2.4 03:50:12 35° SW 03:51:22 57° WNW 03:54:47 10° NNE
Cosmos 1833 4.3 03:48:29 22° SW 03:52:05 62° NW 03:57:42 10° NNE
Cosmos 2344 3.6 03:46:42 20° SW 03:52:12 80° NW 04:00:41 10° NE
Geosat 4.3 03:47:10 10° NE 03:52:12 69° ESE 03:57:13 10° SSW
CENTAUR R/B 3.5 03:45:25 10° NW 03:52:57 44° WSW 04:01:09 10° S
SKYMED 2 3.8 03:50:21 10° SSE 03:54:41 74° ENE 03:59:02 10° NNW
Meteor 1-20 Rocket 4.2 03:51:35 10° NNW 03:57:13 63° W 04:02:55 10° S
ADEOS II 4.0 03:55:13 10° NNW 03:57:15 12° NW 03:58:26 11° WNW
Cosmos 2251 Rocket 3.6 03:53:53 17° SW 03:58:00 63° WNW 04:03:22 10° NNE
IDEFIX/ARIANE 42P 4.0 03:55:29 10° N 03:59:05 19° NW 04:00:30 17° WNW
Cosmos 614 Rocket 3.9 03:54:15 10° SSW 03:59:29 83° WNW 04:04:45 10° NNE
ALOS 2.2 03:56:21 10° N 04:01:02 68° WNW 04:05:40 10° SSW
ISS -2.7 04:00:41 26° SW 04:01:19 28° SSW 04:04:14 10° SSE
Meteor 1-14 Rocket 4.4 03:55:53 10° NNW 04:01:34 77° ENE 04:07:20 10° SSE
CZ-2C R/B 4.4 03:57:52 10° SE 04:02:56 36° ENE 04:07:58 10° N
CZ-2C R/B 3.8 03:59:55 10° N 04:03:12 26° WNW 04:04:14 23° W
Cosmos 1933 3.2 03:59:23 10° SSW 04:03:24 73° WNW 04:07:29 10° N
Cosmos 2237 Rocket 2.2 04:01:02 10° NNW 04:06:46 88° WSW 04:12:26 10° SSE
Meteor 1-31 Rocket 3.0 04:05:01 10° NNE 04:08:53 70° ESE 04:12:44 10° S
USA 234 4.5 04:05:37 10° SSW 04:09:51 18° WSW 04:11:34 16° WSW
Iridium 51 4.1 04:06:05 10° NNW 04:09:53 57° W 04:13:23 10° SSW
CSL-04 DEB 4.2 04:07:35 10° SSE 04:11:32 79° WSW 04:15:29 10° NNW
PSLV R/B 4.1 04:09:30 10° N 04:13:36 39° WNW 04:17:21 12° SW
Cosmos 407 Rocket 3.6 04:09:22 10° SSW 04:14:31 81° ESE 04:19:42 10° NNE
CZ-4C R/B 2.4 04:10:38 10° SW 04:15:42 71° SE 04:21:54 10° NE
USA 276 3.0 04:16:02 18° SW 04:18:05 39° SSE 04:21:07 10° E
Lacrosse 5 3.4 04:19:24 15° WSW 04:20:15 15° SW 04:23:10 10° SSW
Nadezhda 1 Rocket 4.3 04:15:56 10° S 04:22:03 72° E 04:28:19 10° NNE
NOSS 3-4 (A) 3.7 04:17:55 10° SW 04:23:48 72° SE 04:30:14 10° NE
NOSS 3-4 (C) 3.7 04:18:01 10° SW 04:23:54 72° SE 04:30:20 10° NE
PSLV R/B 4.4 04:21:43 10° SSE 04:25:51 68° ENE 04:30:00 10° N
Cosmos 1190 Rocket 4.2 04:20:53 10° SSW 04:26:12 79° ESE 04:31:32 10° NNE
Cosmos 1328 Rocket 3.4 04:22:05 10° SSW 04:26:23 80° WNW 04:30:44 10° N
SJ-12 3.9 04:23:21 10° NNE 04:27:27 89° WNW 04:31:31 10° SSW
Cosmos 2333 Rocket 3.3 04:23:20 10° NW 04:27:44 23° WSW 04:32:07 10° SSW
Cosmos 1515 Rocket 4.0 04:24:14 10° S 04:28:33 67° E 04:32:56 10° NNE
Cosmos 2082 Rocket 4.3 04:25:51 10° NW 04:28:59 15° NNW 04:32:06 10° NNE
Cosmos 2227 Rocket 3.9 04:24:06 10° S 04:29:14 37° ESE 04:34:24 10° NE
SL-16 R/B 2.8 04:24:08 10° NNW 04:29:48 61° NE 04:35:26 10° SE
Cosmos 1484 Rocket 3.3 04:27:13 10° N 04:30:39 36° WNW 04:34:04 10° SW
Cosmos 1666 3.3 04:27:38 10° N 04:31:27 61° ENE 04:35:14 10° SSE
Cosmos 2221 4.4 04:30:18 12° WNW 04:31:36 13° WNW 04:33:43 10° NNW
Cosmos 1470 Rocket 3.6 04:29:43 10° NNW 04:34:01 57° W 04:38:15 10° S
CZ-4B R/B 3.6 04:29:55 10° NNE 04:34:26 68° ESE 04:38:56 10° S
Cosmos 1437 Rocket 2.8 04:32:05 10° SSW 04:36:05 60° WNW 04:40:03 10° N
CZ-2C R/B 3.6 04:33:57 10° N 04:37:38 23° WNW 04:41:15 10° WSW
SAR-Lupe-1 4.4 04:35:18 10° SSE 04:38:51 69° ENE 04:42:27 10° N
Cosmos 2327 Rocket 4.4 04:32:47 10° NNW 04:38:52 68° W 04:44:53 10° S
Cosmos 1689 Rocket 2.5 04:36:16 10° SSE 04:39:03 63° ENE 04:41:54 10° N
ATLAS 2AS CENTAUR R/B 3.4 04:31:25 10° SSW 04:39:17 69° SE 04:46:58 10° NE
deb Chang Zheng 4 4.1 04:35:49 10° NNE 04:40:06 64° ESE 04:44:23 10° S
Envisat 3.8 04:35:12 10° NNE 04:40:14 57° E 04:45:13 10° S
CZ-4B R/B 1.7 04:38:56 10° SSW 04:41:49 36° W 04:44:41 10° NNW
Cosmos 2219 Rocket 3.4 04:38:15 10° NW 04:42:17 20° W 04:46:19 10° SSW
COSMO-SKYMED 1 3.0 04:38:45 10° S 04:42:52 41° W 04:47:00 10° NNW
Cosmos 2297 Rocket 3.0 04:38:46 10° S 04:44:15 56° ESE 04:49:48 10° NE
Cosmos 1295 Rocket 4.4 04:38:57 10° NNW 04:45:02 71° W 04:51:05 10° S
Cosmos 1782 3.0 04:42:11 10° SSW 04:46:01 48° WNW 04:49:53 10° N
Cosmos 1500 3.5 04:47:26 10° NNW 04:51:03 43° W 04:54:40 10° SSW
Cosmos 1980 4.1 04:46:08 10° NW 04:51:29 44° WSW 04:56:48 10° S
Cosmos 1140 Rocket 3.5 04:46:50 10° SW 04:52:00 64° WNW 04:57:10 10° NNE
Cosmos 1933 Rocket 3.7 04:50:03 10° NNW 04:54:25 54° W 04:58:46 10° S
Meteor 1-26 Rocket 4.5 04:49:23 10° SSW 04:55:02 54° WNW 05:00:54 10° N
ERS-2 2.1 04:52:29 10° S 04:56:06 68° WSW 04:59:46 10° NNW
COSMOS 2428 4.0 04:55:06 10° WNW 04:58:51 18° W 05:02:36 10° SW
